When you browse on this site, cookies collect data to enhance your experience and personalize the content and advertising you see.
Visit our Privacy Policy to learn more. By continuing to use the site, you agree to this use of cookies and data.
  • In Schweiz
  • Länderverzeichnis
  • Für 7 Tage
  • Wassertemperatur
  • Satellitenkarten
  • Wetterkarte
  • Widgets
  • user-avatar
    Anmelden

    Stündliche Wetter Karakol

    Heute, 25 März, Montag

    Zeit Temperatur Niederschläge Wind Luftdruck Luftfeuchtigkeit
    00:00 -1°C° 0 mm 3 m/S 605 mmHg 45%
    01:00 -2°C° 0 mm 3 m/S 605 mmHg 43%
    02:00 -2°C° 0 mm 3 m/S 605 mmHg 40%
    03:00 -2°C° 0 mm 3 m/S 605 mmHg 39%
    04:00 -4°C° 0 mm 3 m/S 605 mmHg 39%
    05:00 -4°C° 0 mm 3 m/S 604 mmHg 34%
    06:00 -1°C° 0 mm 3 m/S 605 mmHg 37%
    07:00 +1°C° 0 mm 2 m/S 606 mmHg 40%
    08:00 +2°C° 0 mm 2 m/S 606 mmHg 43%
    09:00 +3°C° 0 mm 2 m/S 606 mmHg 43%
    10:00 +4°C° 0 mm 2 m/S 606 mmHg 42%
    11:00 +6°C° 0 mm 1 m/S 606 mmHg 42%
    12:00 +6°C° 0 mm 1 m/S 606 mmHg 42%
    13:00 +6°C° 0 mm 1 m/S 606 mmHg 42%
    14:00 +5°C° 0 mm 2 m/S 605 mmHg 42%
    15:00 +6°C° 0 mm 1 m/S 605 mmHg 44%
    16:00 +5°C° 0 mm 1 m/S 605 mmHg 45%
    17:00 +4°C° 0 mm 1 m/S 605 mmHg 47%
    18:00 +2°C° 0 mm 2 m/S 606 mmHg 47%
    19:00 +1°C° 0 mm 2 m/S 606 mmHg 46%
    20:00 0°C° 0 mm 3 m/S 606 mmHg 46%
    21:00 -1°C° 0 mm 3 m/S 607 mmHg 45%
    22:00 -1°C° 0 mm 3 m/S 607 mmHg 45%
    23:00 -1°C° 0 mm 3 m/S 607 mmHg 44%

    Morgen, 26 März, Dienstag

    Zeit Temperatur Niederschläge Wind Luftdruck Luftfeuchtigkeit
    00:00 -1°C° 0 mm 3 m/S 607 mmHg 44%
    01:00 -2°C° 0 mm 3 m/S 607 mmHg 43%
    02:00 -2°C° 0 mm 3 m/S 607 mmHg 43%
    03:00 -2°C° 0 mm 3 m/S 607 mmHg 43%
    04:00 -2°C° 0 mm 3 m/S 607 mmHg 43%
    05:00 -2°C° 0 mm 3 m/S 607 mmHg 43%
    06:00 -1°C° 0 mm 3 m/S 608 mmHg 43%
    07:00 +1°C° 0 mm 2 m/S 608 mmHg 43%
    08:00 +2°C° 0 mm 2 m/S 609 mmHg 43%
    09:00 +4°C° 0 mm 2 m/S 608 mmHg 40%
    10:00 +5°C° 0 mm 2 m/S 608 mmHg 37%
    11:00 +6°C° 0 mm 2 m/S 608 mmHg 34%
    12:00 +6°C° 0 mm 2 m/S 608 mmHg 32%
    13:00 +7°C° 0 mm 2 m/S 608 mmHg 31%
    14:00 +8°C° 0 mm 1 m/S 607 mmHg 29%
    15:00 +7°C° 0 mm 2 m/S 607 mmHg 31%
    16:00 +7°C° 0 mm 2 m/S 607 mmHg 33%
    17:00 +6°C° 0 mm 2 m/S 606 mmHg 35%
    18:00 +5°C° 0 mm 2 m/S 606 mmHg 35%
    19:00 +3°C° 0 mm 3 m/S 606 mmHg 35%
    20:00 +2°C° 0 mm 3 m/S 606 mmHg 34%
    21:00 +2°C° 0 mm 3 m/S 606 mmHg 33%
    22:00 +2°C° 0 mm 3 m/S 605 mmHg 32%
    23:00 +2°C° 0 mm 3 m/S 605 mmHg 30%

    übermorgen, 27 März, Mittwoch

    Zeit Temperatur Niederschläge Wind Luftdruck Luftfeuchtigkeit
    00:00 +3°C° 0 mm 3 m/S 605 mmHg 30%
    01:00 +3°C° 0 mm 3 m/S 604 mmHg 29%
    02:00 +3°C° 0 mm 3 m/S 604 mmHg 29%
    03:00 +3°C° 0 mm 3 m/S 604 mmHg 29%
    04:00 +4°C° 0 mm 2 m/S 604 mmHg 30%
    05:00 +5°C° 0 mm 2 m/S 604 mmHg 31%
    06:00 +5°C° 0 mm 2 m/S 604 mmHg 33%
    07:00 +6°C° 0 mm 2 m/S 605 mmHg 36%
    08:00 +7°C° 0 mm 2 m/S 605 mmHg 39%
    09:00 +9°C° 0 mm 1 m/S 606 mmHg 38%
    10:00 +10°C° 0 mm 1 m/S 606 mmHg 38%
    11:00 +11°C° 0 mm 1 m/S 606 mmHg 38%
    12:00 +11°C° 0 mm 1 m/S 606 mmHg 38%
    13:00 +11°C° 0 mm 1 m/S 606 mmHg 39%
    14:00 +12°C° 0 mm 1 m/S 606 mmHg 39%
    15:00 +11°C° 0 mm 1 m/S 605 mmHg 41%
    16:00 +11°C° 0 mm 1 m/S 605 mmHg 43%
    17:00 +10°C° 0 mm 1 m/S 605 mmHg 45%
    18:00 +10°C° 0 mm 1 m/S 605 mmHg 47%
    19:00 +8°C° 0 mm 2 m/S 605 mmHg 49%
    20:00 +7°C° 0 mm 2 m/S 606 mmHg 51%
    21:00 +7°C° 0 mm 2 m/S 605 mmHg 51%
    22:00 +7°C° 0 mm 2 m/S 605 mmHg 52%
    23:00 +7°C° 0 mm 2 m/S 605 mmHg 53%

    28 März, Donnerstag

    Zeit Temperatur Niederschläge Wind Luftdruck Luftfeuchtigkeit
    00:00 +6°C° 0 mm 2 m/S 605 mmHg 53%
    01:00 +7°C° 0 mm 1 m/S 605 mmHg 54%
    02:00 +7°C° 0 mm 1 m/S 605 mmHg 55%
    03:00 +7°C° 0 mm 1 m/S 605 mmHg 55%
    04:00 +7°C° 0 mm 1 m/S 605 mmHg 56%
    05:00 +7°C° 0 mm 1 m/S 605 mmHg 56%
    06:00 +8°C° 0 mm 1 m/S 605 mmHg 55%
    07:00 +9°C° 0 mm 1 m/S 606 mmHg 55%
    08:00 +10°C° 0 mm 1 m/S 606 mmHg 54%
    09:00 +10°C° 0 mm 1 m/S 607 mmHg 52%
    10:00 +11°C° 0 mm 1 m/S 607 mmHg 51%
    11:00 +12°C° 0 mm 1 m/S 607 mmHg 49%
    12:00 +12°C° 0 mm 1 m/S 607 mmHg 50%
    13:00 +12°C° 0 mm 2 m/S 607 mmHg 52%
    14:00 +13°C° 0 mm 2 m/S 607 mmHg 53%
    15:00 +12°C° 0.1 mm 1 m/S 607 mmHg 56%
    16:00 +11°C° 0.1 mm 1 m/S 607 mmHg 58%
    17:00 +11°C° 0.1 mm 1 m/S 607 mmHg 61%
    18:00 +10°C° 0.2 mm 1 m/S 607 mmHg 63%
    19:00 +10°C° 0.2 mm 1 m/S 607 mmHg 65%
    20:00 +9°C° 0.2 mm 1 m/S 607 mmHg 66%
    21:00 +9°C° 0.2 mm 1 m/S 607 mmHg 67%
    22:00 +9°C° 0.2 mm 1 m/S 607 mmHg 67%
    23:00 +8°C° 0.2 mm 1 m/S 607 mmHg 68%

    29 März, Freitag

    Zeit Temperatur Niederschläge Wind Luftdruck Luftfeuchtigkeit
    00:00 +8°C° 0.2 mm 1 m/S 607 mmHg 69%
    01:00 +8°C° 0.2 mm 1 m/S 606 mmHg 70%
    02:00 +7°C° 0.2 mm 1 m/S 606 mmHg 71%
    03:00 +7°C° 0.2 mm 1 m/S 606 mmHg 70%
    04:00 +7°C° 0.2 mm 1 m/S 606 mmHg 69%
    05:00 +6°C° 0.2 mm 2 m/S 606 mmHg 68%
    06:00 +8°C° 0.1 mm 1 m/S 606 mmHg 65%
    07:00 +9°C° 0.1 mm 1 m/S 607 mmHg 63%
    08:00 +10°C° 0.1 mm 1 m/S 607 mmHg 60%
    09:00 +11°C° 0 mm 1 m/S 607 mmHg 57%
    10:00 +12°C° 0 mm 1 m/S 607 mmHg 55%
    11:00 +13°C° 0 mm 2 m/S 607 mmHg 52%
    12:00 +13°C° 0 mm 2 m/S 607 mmHg 51%
    13:00 +14°C° 0 mm 2 m/S 606 mmHg 50%
    14:00 +14°C° 0 mm 2 m/S 606 mmHg 50%
    15:00 +13°C° 0 mm 1 m/S 605 mmHg 51%
    16:00 +13°C° 0 mm 1 m/S 605 mmHg 52%
    17:00 +13°C° 0 mm 1 m/S 605 mmHg 53%
    18:00 +12°C° 0 mm 1 m/S 605 mmHg 53%
    19:00 +10°C° 0 mm 2 m/S 605 mmHg 52%
    20:00 +9°C° 0 mm 2 m/S 605 mmHg 52%
    21:00 +8°C° 0 mm 3 m/S 605 mmHg 52%
    22:00 +8°C° 0 mm 3 m/S 605 mmHg 51%
    23:00 +7°C° 0 mm 3 m/S 604 mmHg 50%

    30 März, Samstag

    Zeit Temperatur Niederschläge Wind Luftdruck Luftfeuchtigkeit
    00:00 +7°C° 0 mm 3 m/S 604 mmHg 50%
    01:00 +7°C° 0 mm 3 m/S 604 mmHg 50%
    02:00 +7°C° 0 mm 3 m/S 603 mmHg 49%
    03:00 +7°C° 0 mm 3 m/S 603 mmHg 49%
    04:00 +5°C° 0 mm 3 m/S 603 mmHg 48%
    05:00 +5°C° 0 mm 3 m/S 603 mmHg 48%
    06:00 +7°C° 0 mm 2 m/S 603 mmHg 46%
    07:00 +9°C° 0 mm 2 m/S 604 mmHg 44%
    08:00 +10°C° 0 mm 2 m/S 604 mmHg 42%
    09:00 +12°C° 0 mm 2 m/S 604 mmHg 39%
    10:00 +13°C° 0 mm 2 m/S 604 mmHg 36%
    11:00 +13°C° 0 mm 2 m/S 605 mmHg 34%
    12:00 +13°C° 0 mm 2 m/S 605 mmHg 35%
    13:00 +14°C° 0 mm 2 m/S 605 mmHg 36%
    14:00 +13°C° 0 mm 3 m/S 605 mmHg 38%
    15:00 +13°C° 0 mm 2 m/S 605 mmHg 40%
    16:00 +12°C° 0 mm 2 m/S 605 mmHg 43%
    17:00 +11°C° 0 mm 1 m/S 605 mmHg 45%
    18:00 +11°C° 0.1 mm 1 m/S 606 mmHg 49%
    19:00 +10°C° 0.1 mm 1 m/S 606 mmHg 52%
    20:00 +9°C° 0.1 mm 1 m/S 606 mmHg 56%
    21:00 +8°C° 0.1 mm 1 m/S 606 mmHg 58%
    22:00 +7°C° 0.1 mm 1 m/S 606 mmHg 60%
    23:00 +7°C° 0.1 mm 1 m/S 606 mmHg 62%
    Mehr zeigen